Main page
METAR-TAF:

METAR-TAF

Airports :

Wilbarger County Airport

Vernon, Texas, United States

latitude: 34-13-32N, longitude: 099-17-01W, elevation: 1266 ft

Current weather observation

The report was made 10 minutes ago, at 03:15 UTC
Wind 3 mph from the Northeast
Temperature 81°F
Humidity 70%
Pressure 29.94 in. Hg
Visibility: 10 miles
Clear sky

METAR: KF05 200315Z AUTO 04003KT 10SM CLR 27/21 A2994 RMK AO1 T02650213

Time: 22:25 (03:25 UTC)


TAF: missing

Weather observations and forecasts of more than 4000 airports (METAR and TAF reports).

The available stations are represented by yellow and red dots on the map.

Hover mouse over dot to see the name of the station.

Then click to see weather observations and forecasts.

To change the map : click on the green buttons with a black cross to zoom in, on the green button with a dash to zoom out, or on the green arrows for adjacent maps.


METAR-TAF: